Location: Veytaux
(46.4185°N, 6.9320°E)
Time: 11:56:30
(UTC+00:00)

Lacrosse 5 - Visible Passes

Search period start: 26 September 2022 00:00
Search period end: 06 October 2022 00:00
Orbit: 714 x 724 km, 57.0° (Epoch: 09 March)

Date Brightness Start Highest point End Pass type
(mag) Time Alt. Az. Time Alt. Az. Time Alt. Az.
26 Sep 4.2 18:51:54 10° WNW 18:55:30 20° WSW 18:59:05 10° SSW visible
27 Sep 3.5 17:58:04 10° WNW 18:02:38 34° SW 18:07:11 10° SSE visible
28 Sep 4.9 18:50:49 10° WSW 18:51:40 10° WSW 18:52:32 10° SW visible
29 Sep 4.5 17:55:20 10° WNW 17:58:57 20° WSW 18:02:34 10° SSW visible
01 Oct 5.1 17:54:08 10° WSW 17:55:08 11° WSW 17:56:09 10° SW visible
